This is the latest recevied weather packets stored in our database for station/object NY3Q. If no packets are shown the sender has not sent any weather packets the latest 10 day(s).
| Time | Temp. | Humidity | Pressure | Rain* | Wind** | Luminosity | Snow |
|---|---|---|---|---|---|---|---|
| 1777827145 | 21.67° C | 55% | 1019.9 hPa | 0 mm | - | 662 W/m² | - |
| 1777826841 | 22.22° C | 59% | 1020.2 hPa | 0 mm | - | 683 W/m² | - |
| 1777826540 | 21.67° C | 59% | 1020 hPa | 0 mm | - | 648 W/m² | - |
| 1777826235 | 21.67° C | 56% | 1020 hPa | 0 mm | - | 646 W/m² | - |
| 1777825933 | 21.67° C | 58% | 1020.2 hPa | 0 mm | - | 647 W/m² | - |
| 1777825629 | 22.22° C | 57% | 1020.5 hPa | 0 mm | - | 242 W/m² | - |
| 1777825328 | 22.22° C | 60% | 1020.4 hPa | 0 mm | - | 639 W/m² | - |
| 1777825024 | 21.11° C | 64% | 1020.4 hPa | 0 mm | - | 647 W/m² | - |
| 1777824720 | 20.56° C | 62% | 1020.4 hPa | 0 mm | - | 665 W/m² | - |
| 1777824418 | 21.11° C | 59% | 1020.3 hPa | 0 mm | - | 663 W/m² | - |
| 1777824113 | 21.67° C | 60% | 1020 hPa | 0 mm | - | 626 W/m² | - |
| 1777823809 | 21.67° C | 63% | 1020.2 hPa | 0 mm | - | 616 W/m² | - |
| 1777823507 | 21.11° C | 61% | 1020 hPa | 0 mm | - | 602 W/m² | - |
| 1777823204 | 21.11° C | 61% | 1020.1 hPa | 0 mm | - | 596 W/m² | - |
| 1777822902 | 21.67° C | 58% | 1020.1 hPa | 0 mm | - | 579 W/m² | - |
| 1777822600 | 21.67° C | 58% | 1020 hPa | 0 mm | - | 573 W/m² | - |
| 1777822297 | 21.67° C | 62% | 1020.1 hPa | 0 mm | - | 564 W/m² | - |
| 1777821994 | 21.11° C | 62% | 1020 hPa | 0 mm | - | 557 W/m² | - |
| 1777821692 | 21.11° C | 59% | 1019.9 hPa | 0 mm | - | 548 W/m² | - |
| 1777821390 | 21.11° C | 60% | 1020 hPa | 0 mm | - | 530 W/m² | - |
| 1777821086 | 21.11° C | 63% | 1020.1 hPa | 0 mm | - | 530 W/m² | - |
| 1777820783 | 21.11° C | 62% | 1019.8 hPa | 0 mm | - | 511 W/m² | - |
| 1777820479 | 21.11° C | 61% | 1020 hPa | 0 mm | - | 511 W/m² | - |
| 1777820176 | 21.11° C | 63% | 1020.1 hPa | 0 mm | - | 530 W/m² | - |
| 1777819874 | 20.56° C | 65% | 1020 hPa | 0 mm | - | 500 W/m² | - |
* Rain latest hour (hover to see other rain measurements)
** Current wind speed in m/s (hover to see current wind gust speed)